Location: Flensburg
(54.6357°N, 9.5142°E)
Time: 05:20:51
(UTC+01:00)

ISS - Pass Details

Date: 13 November 2017
Orbit: 402 x 407 km, 51.6° (Epoch: 21 November)

Event Time Altitude Azimuth Distance (km) Brightness Sun altitude
Exits shadow 05:02:33 25° 140° (SE) 857 -1.9 -23.8°
Drops below altitude 10° 05:04:13 10° 123° (ESE) 1,455 -0.3 -23.5°
Sets 05:06:22 0° 115° (ESE) 2,313 1.1 -23.2°
